Regional Weather Roundup
Issued by NWS Wakefield, VA

Home | Current Version | Previous Version | Graphics & Text | Print | Product List | Glossary On
Versions: 1 2 3 4 5 6 7 8 9 10 11 12 13 14 15 16 17 18 19 20 21 22 23 24 25 26 27 28 29 30 31 32 33 34 35 36 37 38 39 40 41 42 43 44 45 46 47 48 49 50
804
ASUS41 KAKQ 271415
RWRAKQ

REGIONAL WEATHER ROUNDUP
NATIONAL WEATHER SERVICE WAKEFIELD VA
1000 AM EDT TUE JUN 27 2017

Note: "fair" indicates few or no clouds below 12,000 feet with no
significant weather and/or obstructions to visibility. * = Denotes
station may not report precipitation (e.g., rain,snow,etc.),
thunder or fog.

VAZ042-051-052>054-056-271500-
NORTHERN VIRGINIA

CITY           SKY/WX    TMP DP  RH WIND       PRES   REMARKS
WASH NATIONAL  MOSUNNY   76  51  41 N7        30.04F
DULLES         MOSUNNY   73  50  44 VRB5      30.04S
FORT BELVOIR   SUNNY     76  49  38 W3        30.03F
QUANTICO       MOSUNNY   74  55  51 S3        30.04F
FREDERICKSBRG* MOSUNNY   74  55  52 CALM      30.03F
STAFFORD*      SUNNY     75  50  42 N3        30.08F
WARRENTON      MOSUNNY   75  48  39 CALM      30.04F
CULPEPER*      SUNNY     75  53  46 CALM      30.05F
MANASSAS*      SUNNY     73  54  49 NW6       30.04F
LEESBURG*      CLOUDY    73  55  53 N6        30.05F
WINCHESTER     MOSUNNY   68  50  52 W5        30.05S
FRONT ROYAL*   MOSUNNY   68  52  56 S5        30.05S
LURAY*         PTSUNNY   68  55  64 S3        30.06S
$$

VAZ048-049-060>072-079>083-271500-
CENTRAL AND SOUTH CENTRAL VIRGINIA

CITY           SKY/WX    TMP DP  RH WIND       PRES   REMARKS
RICHMOND       CLOUDY    71  56  58 NE6       30.05S
CHESTERFIELD*  PTSUNNY   73  55  53 N6        30.06S
PETERSBURG*    PTSUNNY   73  54  51 CALM      30.06S
HANOVER        CLOUDY    71  57  61 CALM      30.06S
TAPPAHANNOCK*  CLOUDY    74  52  46 CALM      30.05F
QUINTON*       FAIR      73  58  58 N5        30.05S
CHARLOTTSVILLE MOSUNNY   73  51  46 CALM      30.06S
GORDONSVILLE*  SUNNY     74  50  43 CALM      30.05S
ORANGE*        MOSUNNY   73  50  43 CALM      30.04F
LOUISA*        SUNNY     77  57  50 W3        30.05S
BUMPASS*       FAIR      72  57  58 SW5       30.05S
FARMVILLE*     PTSUNNY   74  51  43 CALM      30.06S
CREWE*         PTSUNNY   71  49  46 NW3       30.07S
FORT PICKETT*  FAIR      73  53  49 NW6       30.07R
CHASE CITY*    PTSUNNY   71  54  55 NW6       30.08R
CLARKSVILLE*   PTSUNNY   72  55  56 N3        30.08R
SOUTH HILL*    PTSUNNY   72  57  59 N6        30.13R
LAWRENCEVILLE* FAIR      73  57  57 NW6       30.07R
EMPORIA*       PTSUNNY   73  59  60 N8        30.07R
$$

VAZ088>098-271500-
SOUTHEAST VIRGINIA

CITY           SKY/WX    TMP DP  RH WIND       PRES   REMARKS
NORFOLK        SUNNY     78  63  59 VRB6      30.02S
VIRGINIA BEACH MOSUNNY   76  62  62 N12       30.01S
NORFOLK NAVAL  PTSUNNY   80  60  50 N9        30.03F
WEST POINT*    CLOUDY    73  56  55 NE5       30.05F
SALUDA*        CLOUDY    74  57  56 N6        30.03F
NEWPORT NEWS   CLOUDY    72  59  63 N7        30.03S
LANGLEY AFB    CLOUDY    72  61  68 S10       30.01S
FORT EUSTIS    CLOUDY    75  59  57 NE5       30.01S
WILLIAMSBURG*  CLOUDY    72  63  73 CALM      30.04S
HR EXEC AP*    FAIR      75  63  64 N5        30.00F
FRANKLIN*      PTSUNNY   75  61  60 N6G16     30.03S
US460-WAKEFLD  CLOUDY    74  61  63 NE7       30.04R
$$

VAZ020-022-025-037-045-271500-
WEST CENTRAL AND SOUTHWEST VIRGINIA

CITY           SKY/WX    TMP DP  RH WIND       PRES   REMARKS
STAUNTON*      PTSUNNY   67  51  56 S5        30.09S
WAYNESBORO*    CLOUDY    66  53  63 S6        30.09S
HOT SPRINGS VA SUNNY     57  37  47 W14       30.15S
LYNCHBURG      SUNNY     71  50  47 W5        30.09R
DANVILLE       MOSUNNY   73  55  53 N10       30.09R
SOUTH BOSTON*  PTSUNNY   73  55  53 NW3       30.09R
MARTINSVILLE   SUNNY     71  53  52 N9        30.13S
ROANOKE        MOSUNNY   70  50  49 CALM      30.12S
BLACKSBURG     SUNNY     65  48  55 W3        30.16F
DUBLIN*        SUNNY     67  42  40 N6        30.16S
MARION*        MOSUNNY   65  45  47 NW7       30.18F
HILLSVILLE*    CLOUDY    62  45  53 N10       30.15S
RICHLANDS*     FAIR      62  12  14 N6        30.19S HAZE
WISE*          SUNNY     63  48  59 CALM      30.21R
ABINGDON*      SUNNY     67  49  52 CALM      30.17R
$$

MDZ021>025-VAZ099-100-271500-
SOUTHERN MARYLAND AND THE DELMARVA PENINSULA

CITY           SKY/WX    TMP DP  RH WIND       PRES   REMARKS
PATUXENT RIVER CLOUDY    74  53  48 N6        30.04R
BAY BRIDGE APT SUNNY     73  55  53 CALM      30.02F
LEONARDTOWN    CLOUDY    70  55  60 CALM      30.05F
DOVER          PTSUNNY   71  66  86 W6        30.01S
GEORGETOWN       N/A     73  59  61 N5        30.03F
EASTON         MOSUNNY   75  59  57 SW3       30.07R
CAMBRIDGE      NOT AVBL
SALISBURY      PTSUNNY   73  57  57 N7        30.02F
OCEAN CITY     PTSUNNY   69  57  65 N8        30.02F
WALLOPS ISLAND PTSUNNY   73  57  57 N7        30.03S
ACCOMACK*      MOSUNNY   76  58  53 N13       30.02S
$$

NCZ012>017-030>032-271500-
NORTH CENTRAL AND EASTERN NORTH CAROLINA

CITY           SKY/WX    TMP DP  RH WIND       PRES   REMARKS
ROANOKE RAPIDS NOT AVBL
RALEIGH        PTSUNNY   75  55  49 VRB6      30.08R
ELIZABETH CITY CLOUDY    79  67  66 SW5       30.02S
AHOSKIE*         N/A     72  63  72 CALM      30.04S
EDENTON*       CLOUDY    80  65  60 CALM      30.03S
CURRITUCK*     CLOUDY    78  65  63 SW3       30.02S
KILL DEVIL HLS CLOUDY    78  65  64 W5        30.01S
MANTEO         CLOUDY    77  66  68 W5        30.03S
CAPE HATTERAS  NOT AVBL
TARBORO*       NOT AVBL
GOLDSBORO      NOT AVBL
WASHINGTON     MOSUNNY  N/A N/A N/A W6        30.03S
GREENVILLE     MOSUNNY   77  63  61 CALM      30.05S
NEW BERN       CLOUDY    80  64  58 W6        30.04S
WILMINGTON     CLOUDY    80  65  59 VRB5      30.03F
$$

VAZ048-271500-
ELSEWHERE

CITY           SKY/WX    TMP DP  RH WIND       PRES   REMARKS
HARRISBURG PA  MOSUNNY   69  55  60 NW12      30.01F
BALTIMORE      PTSUNNY   75  52  44 N5        30.02F
ANNAPOLIS      SUNNY     72  56  57 NW7       30.02F
ANDREWS AFB    SUNNY     74  51  43 N5        30.02F
PHILADELPHIA   CLOUDY    67  60  78 S5        30.02F
HENDERSON NC   MOSUNNY   70  56  61 N6        30.08R
GREENSBORO     MOSUNNY   73  55  53 NE7       30.10S
ROCKY MOUNT    MOSUNNY   77  58  51 N12       30.05R
$$

VAZ100-271500-
MARINE

STATION/POSITION TIME  TEMP    WIND        PRES    WAVE   SWELL
                       AIR SEA DIR/SP/G            HT/PER HT/PER
                 (UTC) (F)     (DEG/KT/KT) (MB)    (FT/S) (FT/S)
BRANDYWINE LGT   1342   70     320/  4/  6 1016.8F
CAPE MAY NJ      1348   70 66  320/  7/  8 1015.9F
LEWES DE         1348   68 67  300/  6/  7 1016.3F
15NM E FENWICK I 1350   68 68  330/ 12/ 14 1016.7F   1/ 6   2/ 6
OCEAN-CITY-INLET 1348   69 69  350/  8/ 11 1016.9S
WACHAPREAGUE VA  1348   76 76   30/  9/ 13 1016.3F
THOMAS POINT MD  1400   71 77   20/  2/  3   N/A
GOOSES REEF MD   1400   73 77  350/  6/ 10 1017.6    1
COVE POINT MD    1348   71     340/  7/ 10 1017.7S
SOLOMONS ISLAND  1348   72 78  330/  4/  8   N/A
BISHOPS HEAD MD  1348   72 77   20/  4/  7 1017.1S
PINEY POINT MD   1342           20/  3/  4   N/A
POTOMAC MD       1400   73 78   30/  8/ 10 1016.1    0
CAMBRIDGE MD     1348   77 81              1017.7R
LEWISETTA VA     1348   73 79   30/  5/  7 1017.0F
RAPPAHANNOCK LGT 1342           10/ 17/ 19 1017.1F
STINGRAY PT      1350   74      30/ 12/ 16 1017.0R
YORK RVR RNG VA  1348   73      20/ 14/ 16 1017.1R
YORKTOWN VA      1348   73 78   20/ 10/ 14 1016.7R
JAMESTOWN VA     1400   72 82   20/  4/  8   N/A     0
DOMINION TERM VA 1348   76      20/  8/ 12 1016.6F
KIPTOPEKE VA     1342      74   10/  7/ 11   N/A
CHES BAY BRIDGE  1348   74 76   10/ 11/ 14 1016.4F
CAPE HENRY VA    1348   74     330/ 11/ 12   N/A
WILLOUBY STN VA  1348   75     360/  8/ 10 1016.6F
S CRANEY ISL VA  1348   76     320/  6/  9 1016.4F
CAPE HENRY BUOY  1400      72                N/A     1/ 8
1ST LANDING BUOY 1400   75 76              1016.5    1/ 3
CAPE CHARLES BUO 1351      65                N/A     1/ 8
64NM E OF VA BCH 1350   74 74  190/  4/  4 1017.0F   1/ 8   2/ 8
DUCK PIER NC     1348   79 70   CALM  /  2 1016.1S
44100 DUCK FRF   1305      72                N/A     1/ 8
OREGON INLET NC  1342   78 76  250/  5/  7 1016.5F
HATTERAS NC      1348   78 77  320/  6/  8 1016.5S
DIAMOND SHLS NC  1350   78 81  350/  8/ 10 1016.4R   2/ 7   2/ 7
CAPE LOOKOUT NC  1300   77     330/  7/  9 1016.4S
$$




USA.gov is the U.S. government's official web portal to all federal, state and local government web resources and services.